CZ-6A DEB

Satellite information

Favourite Embed

Satellite Type and Status

DEBRISIN ORBIT

Key statistics

Satellite CZ-6A DEB at a glance.

Uptime

1129

Days in orbit

Revolutions

≈ 14.2

Per day

Orbit

SSO

Sun Synchronous Orbit

Inclination

98.8

Latest

Satellite identification and parameters

Extended collection of information and parameters for CZ-6A DEB.

Object identification

Identified? True

Debris? True

Object name: CZ-6A DEB

International designator: 2022-151ZX

Object number (NORAD): 55875

Object ID (CCSDS): 55875

Country: PEOPLES REPUBLIC OF CHINA (PRC)

Current information (Y/N): Y

RCS size: SMALL

Orbital parameters

Period: 101.497 minutes

Inclination: 98.8238 deg

SMA: 7207.665 km

Apoapsis: 860.541 km

Periapsis: 798.52 km

RAAN: 352.254 deg

Eccentricy: 0.00430241

Argument of periapsis: 126.9872 deg

Mean anomaly: 233.5253 deg

Mean motion: 14.18766229 rev/day

Mean motion (dot): 0.00004511 rev/day2

B* drag term: 0.0021711949 1/REarth

Two-line elements (TLE)

Creation date: Dec. 14, 2025, 3:07 a.m.

Reference frame: TEME

Reference center: EARTH

Epoch: Dec. 13, 2025, 11 a.m. UTC

TLE line 0: 0 CZ-6A DEB

TLE line 1: 1 55875U 22151ZX 25347.45872178 .00004511 00000-0 21712-2 0 9990

TLE line 2: 2 55875 98.8238 352.2540 0043024 126.9872 233.5253 14.18766229147145

Live tracking on map

Real-time ground track for satellite CZ-6A DEB.

In-orbit conjunctions

A list of the most updated potential collisions computed for object CZ-6A DEB.

Target Orbit TCA Probability of collision Miss distance Type
DELTA 1 DEB SSO 2024-11-14 13:30:03 0.0003611119 740.0 (m) DEBRIS
CZ-6A R/B SSO 2024-09-09 11:12:28 0.0003563368 29.0 (m) ROCKET BODY

Associated space launch

Chinese satellite reported for atmospheric/ocean/environmental/spatial parameter research purposes, details TBD.

CZ-6A DEB was lifted into orbit during the mission ‘Long March 6A | Yunhai 3’, on board a Long March 6A space rocket.

The launch took place on Nov. 11, 2022, 10:52 p.m. from Launch Complex 9A.

For more information about the launch, click the button.

Launch to space Long March 6A | Yunhai 3
Long March 6A | Yunhai 3

Agency: N/A

Status: Launch Successful

Launch date: Nov. 11, 2022, 10:52 p.m. UTC

Rocket: Long March 6A

Launch pad: Launch Complex 9A

Location: Taiyuan Satellite Launch Center, People's Republic of China

...

Latest news about this satellite

There are no fresh news available about this satellite. Check back as we update our databases every day.


Newsletter sign-up

Weekly statistics, charts and insights to help you stay on top of the space industry.